Weather History for PAMC - January, 2013

Change the Weather History Date:

Wednesday, January 16, 2013

  Actual Average Record
Temperature  
Mean Temperature 6 °F -7 °F  
Max Temperature 9 °F - 50 °F (2009)
Min Temperature 2 °F -16 °F -60 °F (1947)
Degree Days  
Heating Degree Days 59 72  
Month to date heating degree days 844 1151  
Since 1 July heating degree days 7609 7397  
Cooling Degree Days 0    
Month to date cooling degree days 0  
Year to date cooling degree days 0  
Moisture  
Dew Point -1 °F    
Average Humidity 0    
Maximum Humidity 0    
Minimum Humidity 0    
Precipitation  
Precipitation 0.01 in 0.03 in 0.54 in (2014)
Month to date precipitation 1.92 0.60  
Year to date precipitation 1.92 0.60  
Snow  
Snow 0.50 in 0.50 in 5.40 in (2014)
Month to date snowfall 14.6 8.6  
Since 1 July snowfall 48.3 59.8  
Snow Depth 34.00 in    
Sea Level Pressure  
Sea Level Pressure 30.15 in    
Wind  
Wind Speed 5 mph (NW)    
Max Wind Speed 7 mph    
Max Gust Speed 16 mph    
Visibility 7 miles    
Events Snow    
T = Trace of Precipitation, MM = Missing Value Source: NWS Daily Summary

Daily Weather History Graph

Daily Weather History Graph

Search for Another Location

Airport or City:

Trip Planner

Search our weather history database for the weather conditions in past years. The results will help you decide how hot, cold, wet, or windy it might be!

Date:

Astronomy

Jan. 16, 2013 Rise Set
Actual Time 10:33 AM AKST 4:32 PM AKST
Civil Twilight 9:31 AM AKST 5:33 PM AKST
Nautical Twilight 8:31 AM AKST 6:34 PM AKST
Astronomical Twilight 7:36 AM AKST 7:29 PM AKST
Moon 11:03 AM AKST (1/16) No Moon Set
Length of Visible Light 8h 01m
Length of Day
5h 59m
Waxing Crescent, 29% of the Moon is Illuminated
Jan 16
Waxing Crescent
Jan 18
First Quarter
Jan 26
Full
Feb 3
Last Quarter
Feb 9
New

Hourly Weather History & Observations

Time (AKST) Temp. Windchill Dew Point Humidity Pressure Visibility Wind Dir Wind Speed Gust Speed Precip Events Conditions
12:53 AM 5.0 °F -2.1 °F 1.9 °F 87% 30.21 in 10.0 mi West 3.5 mph - N/A   Mostly Cloudy
1:53 AM 7.0 °F - 3.9 °F 87% 30.21 in 10.0 mi Calm Calm - N/A   Overcast
2:51 AM 8.6 °F 0.1 °F 5.0 °F 85% 30.17 in 2.5 mi West 4.6 mph - 0.00 in Snow Light Snow
2:53 AM 8.1 °F -0.5 °F 5.0 °F 87% 30.20 in 2.5 mi West 4.6 mph - 0.00 in Snow Light Snow
3:11 AM 8.6 °F 2.0 °F 6.8 °F 92% 30.17 in 3.0 mi WSW 3.5 mph - 0.01 in Snow Light Snow
3:31 AM 8.6 °F 2.0 °F 5.0 °F 85% 30.17 in 8.0 mi WNW 3.5 mph - 0.01 in Snow Light Snow
3:53 AM 9.0 °F - 5.0 °F 84% 30.20 in 10.0 mi Calm Calm - 0.01 in   Overcast
4:53 AM 8.1 °F -2.0 °F 1.9 °F 76% 30.20 in 4.0 mi West 5.8 mph - 0.00 in Snow Light Snow
5:53 AM 5.0 °F -2.1 °F -2.9 °F 70% 30.19 in 10.0 mi WNW 3.5 mph - 0.00 in   Mostly Cloudy
7:24 AM 3.2 °F -7.8 °F -4.0 °F 72% 30.17 in 10.0 mi NW 5.8 mph - N/A   Mostly Cloudy
7:53 AM 3.9 °F -3.4 °F -4.0 °F 70% 30.20 in 9.0 mi NW 3.5 mph - 0.00 in Snow Light Snow
8:11 AM 3.2 °F -6.2 °F -2.2 °F 78% 30.17 in 5.0 mi WNW 4.6 mph - 0.00 in Snow Light Snow
8:33 AM 3.2 °F -6.2 °F -2.2 °F 78% 30.17 in 3.0 mi WNW 4.6 mph - 0.00 in Snow Light Snow
8:53 AM 3.0 °F - -2.0 °F 80% 30.20 in 5.0 mi Calm Calm - 0.00 in Snow Light Snow
9:53 AM 1.9 °F -5.6 °F -2.9 °F 80% 30.19 in 5.0 mi North 3.5 mph - 0.00 in Snow Light Snow
10:53 AM 1.9 °F -5.6 °F -2.9 °F 80% 30.18 in 3.0 mi North 3.5 mph - 0.00 in Snow Light Snow
11:53 AM 3.0 °F -6.4 °F -2.9 °F 76% 30.17 in 5.0 mi NNW 4.6 mph - 0.00 in Snow Light Snow
12:53 PM 3.0 °F -8.0 °F -2.9 °F 76% 30.17 in 5.0 mi NW 5.8 mph - 0.00 in Snow Light Snow
1:53 PM 3.0 °F -6.4 °F -2.9 °F 76% 30.15 in 5.0 mi NW 4.6 mph - 0.00 in Snow Light Snow
2:53 PM 3.0 °F -6.4 °F -2.9 °F 76% 30.13 in 9.0 mi NW 4.6 mph - 0.00 in Snow Light Snow
3:53 PM 3.0 °F -9.3 °F -4.0 °F 73% 30.12 in 9.0 mi NW 6.9 mph - 0.00 in Snow Light Snow
4:53 PM 3.0 °F -6.4 °F -4.0 °F 73% 30.11 in 10.0 mi NNW 4.6 mph - 0.00 in   Overcast
5:53 PM 3.0 °F -9.3 °F -6.0 °F 66% 30.10 in 10.0 mi NNW 6.9 mph - N/A   Overcast
6:53 PM 3.0 °F -10.5 °F -6.0 °F 66% 30.04 in 9.0 mi North 8.1 mph - N/A   Overcast
7:53 PM 3.0 °F -8.0 °F -6.0 °F 66% 30.06 in 10.0 mi North 5.8 mph - N/A   Overcast
8:53 PM 1.9 °F -11.8 °F -5.1 °F 72% 30.05 in 7.0 mi NNW 8.1 mph - 0.00 in Snow Light Snow
11:53 PM 1.9 °F -7.6 °F -5.1 °F 72% 30.02 in 4.0 mi NNW 4.6 mph - 0.00 in Snow Light Snow